Time,TemperatureF,DewpointF,PressureIn,WindDirection,WindDirectionDegrees,WindSpeedMPH,WindSpeedGustMPH,Humidity,HourlyPrecipIn,Conditions,Clouds,dailyrainin,SoftwareType,DateUTC
2013-02-14 00:04:00,33.0,33.0,29.63,North,0,3.0,10.0,100,0.00,,,-99.99,Weather View 32 v70,2013-02-14 06:04:00,
2013-02-14 00:09:00,33.0,33.0,29.63,NNE,22,4.0,10.0,100,0.00,,,-99.99,Weather View 32 v70,2013-02-14 06:09:00,
2013-02-14 00:14:00,33.0,33.0,29.63,North,0,3.0,10.0,100,0.00,,,-99.99,Weather View 32 v70,2013-02-14 06:14:00,
2013-02-14 00:19:00,33.0,33.0,29.63,North,0,3.0,10.0,100,0.00,,,-99.99,Weather View 32 v70,2013-02-14 06:19:00,
2013-02-14 00:29:00,33.0,33.0,29.64,North,0,6.0,10.0,100,0.00,,,-99.99,Weather View 32 v70,2013-02-14 06:29:00,
2013-02-14 00:34:00,33.0,33.0,29.64,NNE,22,4.0,10.0,100,0.00,,,-99.99,Weather View 32 v70,2013-02-14 06:34:00,
2013-02-14 00:39:00,33.0,33.0,29.64,North,0,5.0,11.0,100,0.00,,,-99.99,Weather View 32 v70,2013-02-14 06:39:00,
2013-02-14 00:44:00,33.0,33.0,29.64,NNE,22,4.0,13.0,100,0.00,,,-99.99,Weather View 32 v70,2013-02-14 06:44:00,
2013-02-14 00:54:00,33.0,33.0,29.64,NNE,22,7.0,13.0,100,0.00,,,-99.99,Weather View 32 v70,2013-02-14 06:54:00,
2013-02-14 01:04:00,33.0,33.0,29.65,North,0,6.0,13.0,100,0.00,,,-99.99,Weather View 32 v70,2013-02-14 07:04:00,
2013-02-14 01:09:00,33.0,33.0,29.65,North,0,4.0,13.0,100,0.00,,,-99.99,Weather View 32 v70,2013-02-14 07:09:00,
2013-02-14 01:14:00,33.0,33.0,29.65,NNE,22,6.0,13.0,100,0.00,,,-99.99,Weather View 32 v70,2013-02-14 07:14:00,
2013-02-14 01:19:00,33.0,33.0,29.66,ENE,68,3.0,13.0,100,0.00,,,-99.99,Weather View 32 v70,2013-02-14 07:19:00,
2013-02-14 01:24:00,32.0,32.0,29.66,North,0,7.0,13.0,100,0.00,,,-99.99,Weather View 32 v70,2013-02-14 07:24:00,
2013-02-14 01:29:00,32.0,32.0,29.66,North,0,5.0,13.0,100,0.00,,,-99.99,Weather View 32 v70,2013-02-14 07:29:00,
2013-02-14 01:34:00,32.0,32.0,29.66,NNE,22,6.0,14.0,100,0.00,,,-99.99,Weather View 32 v70,2013-02-14 07:34:00,
2013-02-14 01:39:00,32.0,32.0,29.66,NE,45,5.0,14.0,100,0.00,,,-99.99,Weather View 32 v70,2013-02-14 07:39:00,
2013-02-14 01:44:00,32.0,32.0,29.67,NNW,338,2.0,14.0,100,0.00,,,-99.99,Weather View 32 v70,2013-02-14 07:44:00,
2013-02-14 01:49:00,32.0,32.0,29.67,NNE,22,4.0,14.0,100,0.00,,,-99.99,Weather View 32 v70,2013-02-14 07:49:00,
2013-02-14 01:54:00,32.0,32.0,29.67,North,0,3.0,14.0,100,0.00,,,-99.99,Weather View 32 v70,2013-02-14 07:54:00,
2013-02-14 01:59:00,32.0,32.0,29.68,NNE,22,3.0,14.0,100,0.00,,,-99.99,Weather View 32 v70,2013-02-14 07:59:00,
2013-02-14 02:04:00,32.0,32.0,29.68,NNW,338,2.0,14.0,100,0.00,,,-99.99,Weather View 32 v70,2013-02-14 08:04:00,
2013-02-14 02:09:00,32.0,32.0,29.68,North,0,2.0,14.0,100,0.00,,,-99.99,Weather View 32 v70,2013-02-14 08:09:00,
2013-02-14 02:14:00,31.0,31.0,29.68,ENE,68,6.0,14.0,100,0.00,,,-99.99,Weather View 32 v70,2013-02-14 08:14:00,
2013-02-14 02:24:00,31.0,31.0,29.69,NNW,338,7.0,14.0,100,0.00,,,-99.99,Weather View 32 v70,2013-02-14 08:24:00,
2013-02-14 02:29:00,31.0,31.0,29.69,NW,315,7.0,14.0,100,0.00,,,-99.99,Weather View 32 v70,2013-02-14 08:29:00,
2013-02-14 02:34:00,31.0,31.0,29.70,NE,45,5.0,15.0,100,0.00,,,-99.99,Weather View 32 v70,2013-02-14 08:34:00,
2013-02-14 02:39:00,31.0,31.0,29.70,NW,315,3.0,15.0,100,0.00,,,-99.99,Weather View 32 v70,2013-02-14 08:39:00,
2013-02-14 02:44:00,31.0,31.0,29.70,NNE,22,6.0,15.0,100,0.00,,,-99.99,Weather View 32 v70,2013-02-14 08:44:00,
2013-02-14 02:54:00,31.0,31.0,29.71,North,0,4.0,15.0,100,0.00,,,-99.99,Weather View 32 v70,2013-02-14 08:54:00,
2013-02-14 02:59:00,31.0,31.0,29.71,North,0,11.0,15.0,100,0.00,,,-99.99,Weather View 32 v70,2013-02-14 08:59:00,
2013-02-14 03:04:00,30.0,30.0,29.71,NE,45,5.0,15.0,100,0.00,,,-99.99,Weather View 32 v70,2013-02-14 09:04:00,
2013-02-14 03:09:00,30.0,30.0,29.71,North,0,3.0,15.0,100,0.00,,,-99.99,Weather View 32 v70,2013-02-14 09:09:00,
2013-02-14 03:14:00,30.0,30.0,29.71,NW,315,3.0,15.0,100,0.00,,,-99.99,Weather View 32 v70,2013-02-14 09:14:00,
2013-02-14 03:24:00,30.0,30.0,29.72,NE,45,2.0,15.0,100,0.00,,,-99.99,Weather View 32 v70,2013-02-14 09:24:00,
2013-02-14 03:29:00,30.0,30.0,29.72,NW,315,2.0,15.0,100,0.00,,,-99.99,Weather View 32 v70,2013-02-14 09:29:00,
2013-02-14 03:34:00,30.0,30.0,29.72,NE,45,3.0,14.0,100,0.00,,,-99.99,Weather View 32 v70,2013-02-14 09:34:00,
2013-02-14 03:39:00,30.0,30.0,29.72,NNE,22,2.0,14.0,100,0.00,,,-99.99,Weather View 32 v70,2013-02-14 09:39:00,
2013-02-14 03:44:00,30.0,30.0,29.72,WNW,292,3.0,12.0,100,0.00,,,-99.99,Weather View 32 v70,2013-02-14 09:44:00,
2013-02-14 03:54:00,30.0,30.0,29.73,NW,315,2.0,12.0,100,0.00,,,-99.99,Weather View 32 v70,2013-02-14 09:54:00,
2013-02-14 03:59:00,30.0,30.0,29.73,North,0,3.0,12.0,100,0.00,,,-99.99,Weather View 32 v70,2013-02-14 09:59:00,
2013-02-14 04:09:00,30.0,30.0,29.74,NNE,22,5.0,11.0,100,0.00,,,-99.99,Weather View 32 v70,2013-02-14 10:09:00,
2013-02-14 04:15:00,30.0,30.0,29.74,North,0,4.0,11.0,100,0.00,,,-99.99,Weather View 32 v70,2013-02-14 10:15:00,
2013-02-14 04:24:00,29.0,29.0,29.74,NNW,338,2.0,9.0,100,0.00,,,-99.99,Weather View 32 v70,2013-02-14 10:24:00,
2013-02-14 04:29:00,29.0,29.0,29.75,North,0,3.0,9.0,100,0.00,,,-99.99,Weather View 32 v70,2013-02-14 10:29:00,
2013-02-14 04:34:00,29.0,29.0,29.75,NW,315,2.0,9.0,100,0.00,,,-99.99,Weather View 32 v70,2013-02-14 10:34:00,
2013-02-14 04:39:00,29.0,29.0,29.75,NNW,338,1.0,9.0,100,0.00,,,-99.99,Weather View 32 v70,2013-02-14 10:39:00,
2013-02-14 04:44:00,29.0,29.0,29.75,NNW,338,2.0,9.0,100,0.00,,,-99.99,Weather View 32 v70,2013-02-14 10:44:00,
2013-02-14 04:54:00,29.0,29.0,29.76,NW,315,2.0,9.0,100,0.00,,,-99.99,Weather View 32 v70,2013-02-14 10:54:00,
2013-02-14 04:59:00,28.0,28.0,29.76,NW,315,1.0,9.0,100,0.00,,,-99.99,Weather View 32 v70,2013-02-14 10:59:00,
2013-02-14 05:09:00,28.0,28.0,29.77,North,0,2.0,9.0,100,0.00,,,-99.99,Weather View 32 v70,2013-02-14 11:09:00,
2013-02-14 05:14:00,28.0,28.0,29.77,NNW,338,0.0,9.0,100,0.00,,,-99.99,Weather View 32 v70,2013-02-14 11:14:00,
2013-02-14 05:24:00,28.0,28.0,29.77,NW,315,2.0,7.0,100,0.00,,,-99.99,Weather View 32 v70,2013-02-14 11:24:00,
2013-02-14 05:29:00,28.0,28.0,29.77,WNW,292,1.0,7.0,100,0.00,,,-99.99,Weather View 32 v70,2013-02-14 11:29:00,
2013-02-14 05:34:00,28.0,28.0,29.77,NW,315,2.0,7.0,100,0.00,,,-99.99,Weather View 32 v70,2013-02-14 11:34:00,
2013-02-14 05:44:00,28.0,28.0,29.78,WSW,248,2.0,6.0,100,0.00,,,-99.99,Weather View 32 v70,2013-02-14 11:44:00,
2013-02-14 05:49:00,28.0,28.0,29.78,WNW,292,2.0,6.0,100,0.00,,,-99.99,Weather View 32 v70,2013-02-14 11:49:00,
2013-02-14 05:54:00,28.0,28.0,29.78,WNW,292,2.0,7.0,100,0.00,,,-99.99,Weather View 32 v70,2013-02-14 11:54:00,
2013-02-14 05:59:00,27.0,27.0,29.79,WNW,292,1.0,7.0,100,0.00,,,-99.99,Weather View 32 v70,2013-02-14 11:59:00,
2013-02-14 06:09:00,27.0,27.0,29.79,NW,315,1.0,7.0,100,0.00,,,-99.99,Weather View 32 v70,2013-02-14 12:09:00,
2013-02-14 06:14:00,27.0,27.0,29.79,WNW,292,0.0,7.0,100,0.00,,,-99.99,Weather View 32 v70,2013-02-14 12:14:00,
2013-02-14 06:19:00,27.0,27.0,29.79,NNW,338,0.0,7.0,100,0.00,,,-99.99,Weather View 32 v70,2013-02-14 12:19:00,
2013-02-14 06:24:00,27.0,27.0,29.79,North,0,1.0,7.0,100,0.00,,,-99.99,Weather View 32 v70,2013-02-14 12:24:00,
2013-02-14 06:34:00,27.0,27.0,29.79,WNW,292,0.0,7.0,100,0.00,,,-99.99,Weather View 32 v70,2013-02-14 12:34:00,
2013-02-14 06:39:00,26.0,26.0,29.80,NNW,338,1.0,7.0,100,0.00,,,-99.99,Weather View 32 v70,2013-02-14 12:39:00,
2013-02-14 06:44:00,26.0,26.0,29.80,WNW,292,0.0,7.0,100,0.00,,,-99.99,Weather View 32 v70,2013-02-14 12:44:00,
2013-02-14 06:49:00,26.0,26.0,29.81,NW,315,2.0,7.0,100,0.00,,,-99.99,Weather View 32 v70,2013-02-14 12:49:00,
2013-02-14 06:54:00,26.0,26.0,29.80,NW,315,0.0,4.0,100,0.00,,,-99.99,Weather View 32 v70,2013-02-14 12:54:00,
2013-02-14 07:04:00,26.0,26.0,29.81,NW,315,0.0,4.0,100,0.00,,,-99.99,Weather View 32 v70,2013-02-14 13:04:00,
2013-02-14 07:09:00,26.0,26.0,29.81,WNW,292,0.0,3.0,100,0.00,,,-99.99,Weather View 32 v70,2013-02-14 13:09:00,
2013-02-14 07:14:00,26.0,26.0,29.81,WNW,292,1.0,3.0,100,0.00,,,-99.99,Weather View 32 v70,2013-02-14 13:14:00,
2013-02-14 07:19:00,26.0,26.0,29.81,North,0,0.0,3.0,100,0.00,,,-99.99,Weather View 32 v70,2013-02-14 13:19:00,
2013-02-14 07:24:00,26.0,26.0,29.82,NW,315,0.0,3.0,100,0.00,,,-99.99,Weather View 32 v70,2013-02-14 13:24:00,
2013-02-14 07:34:00,25.0,25.0,29.82,WNW,292,0.0,3.0,100,0.00,,,-99.99,Weather View 32 v70,2013-02-14 13:34:00,
2013-02-14 07:39:00,25.0,25.0,29.82,NNW,338,0.0,3.0,100,0.00,,,-99.99,Weather View 32 v70,2013-02-14 13:39:00,
2013-02-14 07:44:00,25.0,25.0,29.82,WNW,292,0.0,3.0,100,0.00,,,-99.99,Weather View 32 v70,2013-02-14 13:44:00,
2013-02-14 07:49:00,25.0,25.0,29.83,WNW,292,0.0,3.0,100,0.00,,,-99.99,Weather View 32 v70,2013-02-14 13:49:00,
2013-02-14 07:54:00,25.0,25.0,29.83,WNW,292,0.0,3.0,100,0.00,,,-99.99,Weather View 32 v70,2013-02-14 13:54:00,
2013-02-14 07:59:00,25.0,25.0,29.83,WNW,292,1.0,2.0,100,0.00,,,-99.99,Weather View 32 v70,2013-02-14 13:59:00,
2013-02-14 08:04:00,25.0,25.0,29.83,ESE,112,1.0,2.0,100,0.00,,,-99.99,Weather View 32 v70,2013-02-14 14:04:00,
2013-02-14 08:09:00,26.0,26.0,29.84,NW,315,1.0,2.0,100,0.00,,,-99.99,Weather View 32 v70,2013-02-14 14:09:00,
2013-02-14 08:18:00,26.0,26.0,29.84,WSW,248,2.0,3.0,100,0.00,,,-99.99,Weather View 32 v70,2013-02-14 14:18:00,
2013-02-14 08:24:00,26.0,26.0,29.84,NW,315,0.0,5.0,100,0.00,,,-99.99,Weather View 32 v70,2013-02-14 14:24:00,
2013-02-14 08:29:00,27.0,27.0,29.84,WNW,292,1.0,5.0,100,0.00,,,-99.99,Weather View 32 v70,2013-02-14 14:29:00,
2013-02-14 08:34:00,27.0,27.0,29.85,NW,315,3.0,5.0,100,0.00,,,-99.99,Weather View 32 v70,2013-02-14 14:34:00,
2013-02-14 08:39:00,27.0,27.0,29.85,WNW,292,3.0,6.0,100,0.00,,,-99.99,Weather View 32 v70,2013-02-14 14:39:00,
2013-02-14 08:44:00,27.0,27.0,29.85,NNW,338,2.0,6.0,100,0.00,,,-99.99,Weather View 32 v70,2013-02-14 14:44:00,
2013-02-14 08:49:00,27.0,27.0,29.85,North,0,1.0,6.0,100,0.00,,,-99.99,Weather View 32 v70,2013-02-14 14:49:00,
2013-02-14 08:54:00,27.0,27.0,29.85,WNW,292,3.0,6.0,100,0.00,,,-99.99,Weather View 32 v70,2013-02-14 14:54:00,
2013-02-14 09:04:00,28.0,28.0,29.85,NNW,338,2.0,6.0,100,0.00,,,-99.99,Weather View 32 v70,2013-02-14 15:04:00,
2013-02-14 09:09:00,28.0,28.0,29.86,NNW,338,1.0,6.0,100,0.00,,,-99.99,Weather View 32 v70,2013-02-14 15:09:00,
2013-02-14 09:14:00,28.0,28.0,29.86,WNW,292,1.0,6.0,100,0.00,,,-99.99,Weather View 32 v70,2013-02-14 15:14:00,
2013-02-14 09:19:00,28.0,28.0,29.86,North,0,1.0,6.0,100,0.00,,,-99.99,Weather View 32 v70,2013-02-14 15:19:00,
2013-02-14 09:29:00,29.0,29.0,29.86,North,0,2.0,6.0,100,0.00,,,-99.99,Weather View 32 v70,2013-02-14 15:29:00,
2013-02-14 09:39:00,29.0,29.0,29.87,West,270,3.0,6.0,100,0.00,,,-99.99,Weather View 32 v70,2013-02-14 15:39:00,
2013-02-14 09:49:00,29.0,29.0,29.87,NW,315,2.0,7.0,100,0.00,,,-99.99,Weather View 32 v70,2013-02-14 15:49:00,
2013-02-14 09:54:00,29.0,29.0,29.87,NNE,22,3.0,7.0,100,0.00,,,-99.99,Weather View 32 v70,2013-02-14 15:54:00,
2013-02-14 09:59:00,29.0,29.0,29.87,WNW,292,2.0,7.0,100,0.00,,,-99.99,Weather View 32 v70,2013-02-14 15:59:00,
2013-02-14 10:09:00,29.0,29.0,29.87,NW,315,3.0,7.0,100,0.00,,,-99.99,Weather View 32 v70,2013-02-14 16:09:00,
2013-02-14 10:14:00,30.0,30.0,29.88,WNW,292,1.0,7.0,100,0.00,,,-99.99,Weather View 32 v70,2013-02-14 16:14:00,
2013-02-14 10:20:00,30.0,30.0,29.88,WNW,292,0.0,7.0,100,0.00,,,-99.99,Weather View 32 v70,2013-02-14 16:20:00,
2013-02-14 10:29:00,30.0,30.0,29.88,NNW,338,2.0,7.0,100,0.00,,,-99.99,Weather View 32 v70,2013-02-14 16:29:00,
2013-02-14 10:34:00,30.0,30.0,29.89,WNW,292,3.0,7.0,100,0.00,,,-99.99,Weather View 32 v70,2013-02-14 16:34:00,
2013-02-14 10:39:00,30.0,30.0,29.89,WNW,292,4.0,7.0,100,0.00,,,-99.99,Weather View 32 v70,2013-02-14 16:39:00,
2013-02-14 10:44:00,30.0,30.0,29.89,NW,315,2.0,7.0,100,0.00,,,-99.99,Weather View 32 v70,2013-02-14 16:44:00,
2013-02-14 10:49:00,30.0,30.0,29.89,NW,315,1.0,8.0,100,0.00,,,-99.99,Weather View 32 v70,2013-02-14 16:49:00,
2013-02-14 10:54:00,30.0,30.0,29.89,WNW,292,5.0,8.0,100,0.00,,,-99.99,Weather View 32 v70,2013-02-14 16:54:00,
2013-02-14 10:59:00,30.0,30.0,29.89,West,270,2.0,8.0,100,0.00,,,-99.99,Weather View 32 v70,2013-02-14 16:59:00,
2013-02-14 11:09:00,31.0,31.0,29.89,North,0,0.0,8.0,100,0.00,,,-99.99,Weather View 32 v70,2013-02-14 17:09:00,
2013-02-14 11:14:00,31.0,31.0,29.89,NNW,338,5.0,8.0,100,0.00,,,-99.99,Weather View 32 v70,2013-02-14 17:14:00,
2013-02-14 11:19:00,30.0,30.0,29.89,NNW,338,4.0,8.0,100,0.01,,,-99.99,Weather View 32 v70,2013-02-14 17:19:00,
2013-02-14 11:29:00,31.0,31.0,29.89,West,270,4.0,8.0,100,0.05,,,-99.99,Weather View 32 v70,2013-02-14 17:29:00,
2013-02-14 11:34:00,30.0,30.0,29.90,NNW,338,5.0,11.0,100,0.07,,,-99.99,Weather View 32 v70,2013-02-14 17:34:00,
2013-02-14 11:39:00,30.0,30.0,29.90,North,0,2.0,11.0,100,0.08,,,-99.99,Weather View 32 v70,2013-02-14 17:39:00,
2013-02-14 11:44:00,30.0,30.0,29.90,NNW,338,3.0,13.0,100,0.09,,,-99.99,Weather View 32 v70,2013-02-14 17:44:00,
2013-02-14 11:49:00,30.0,30.0,29.90,NNW,338,0.0,13.0,100,0.09,,,-99.99,Weather View 32 v70,2013-02-14 17:49:00,
2013-02-14 11:54:00,31.0,31.0,29.90,NW,315,2.0,13.0,100,0.10,,,-99.99,Weather View 32 v70,2013-02-14 17:54:00,
2013-02-14 11:59:00,31.0,31.0,29.90,NE,45,2.0,13.0,100,0.11,,,-99.99,Weather View 32 v70,2013-02-14 17:59:00,
2013-02-14 12:04:00,30.0,29.8,29.90,North,0,7.0,13.0,99,0.12,,,-99.99,Weather View 32 v70,2013-02-14 18:04:00,
2013-02-14 12:14:00,30.0,29.8,29.91,NW,315,2.0,13.0,99,0.13,,,-99.99,Weather View 32 v70,2013-02-14 18:14:00,
2013-02-14 12:19:00,30.0,29.8,29.91,NW,315,8.0,13.0,99,0.12,,,-99.99,Weather View 32 v70,2013-02-14 18:19:00,
2013-02-14 12:24:00,30.0,29.5,29.91,NW,315,1.0,13.0,98,0.10,,,-99.99,Weather View 32 v70,2013-02-14 18:24:00,
2013-02-14 12:29:00,30.0,29.5,29.91,NNE,22,3.0,13.0,98,0.09,,,-99.99,Weather View 32 v70,2013-02-14 18:29:00,
2013-02-14 12:34:00,30.0,29.5,29.91,WNW,292,2.0,13.0,98,0.07,,,-99.99,Weather View 32 v70,2013-02-14 18:34:00,
2013-02-14 12:44:00,30.0,29.3,29.91,WSW,248,2.0,12.0,97,0.06,,,-99.99,Weather View 32 v70,2013-02-14 18:44:00,
2013-02-14 12:54:00,30.0,29.0,29.91,WNW,292,4.0,12.0,96,0.06,,,-99.99,Weather View 32 v70,2013-02-14 18:54:00,
2013-02-14 12:59:00,30.0,29.0,29.91,SW,225,2.0,12.0,96,0.05,,,-99.99,Weather View 32 v70,2013-02-14 18:59:00,
2013-02-14 13:09:00,30.0,28.7,29.91,West,270,2.0,12.0,95,0.04,,,-99.99,Weather View 32 v70,2013-02-14 19:09:00,
2013-02-14 13:19:00,30.0,28.7,29.91,North,0,4.0,12.0,95,0.04,,,-99.99,Weather View 32 v70,2013-02-14 19:19:00,
2013-02-14 13:24:00,30.0,28.5,29.91,NNE,22,4.0,11.0,94,0.04,,,-99.99,Weather View 32 v70,2013-02-14 19:24:00,
2013-02-14 13:29:00,30.0,28.5,29.91,NNE,22,4.0,12.0,94,0.03,,,-99.99,Weather View 32 v70,2013-02-14 19:29:00,
2013-02-14 13:39:00,30.0,28.2,29.92,NW,315,6.0,12.0,93,0.03,,,-99.99,Weather View 32 v70,2013-02-14 19:39:00,
2013-02-14 13:44:00,30.0,28.0,29.91,WNW,292,2.0,12.0,92,0.02,,,-99.99,Weather View 32 v70,2013-02-14 19:44:00,
2013-02-14 13:49:00,30.0,28.0,29.92,WNW,292,4.0,12.0,92,0.02,,,-99.99,Weather View 32 v70,2013-02-14 19:49:00,
2013-02-14 13:59:00,30.0,28.0,29.92,NW,315,4.0,12.0,92,0.02,,,-99.99,Weather View 32 v70,2013-02-14 19:59:00,
2013-02-14 14:04:00,30.0,27.4,29.92,ENE,68,4.0,12.0,90,0.02,,,-99.99,Weather View 32 v70,2013-02-14 20:04:00,
2013-02-14 14:09:00,30.0,27.2,29.93,North,0,3.0,12.0,89,0.02,,,-99.99,Weather View 32 v70,2013-02-14 20:09:00,
2013-02-14 14:14:00,30.0,26.3,29.93,North,0,2.0,12.0,86,0.01,,,-99.99,Weather View 32 v70,2013-02-14 20:14:00,
2013-02-14 14:19:00,30.0,26.6,29.93,NNW,338,8.0,12.0,87,0.01,,,-99.99,Weather View 32 v70,2013-02-14 20:19:00,
2013-02-14 14:29:00,31.0,27.3,29.94,WNW,292,2.0,12.0,86,0.01,,,-99.99,Weather View 32 v70,2013-02-14 20:29:00,
2013-02-14 14:34:00,31.0,26.7,29.95,WNW,292,3.0,12.0,84,0.02,,,-99.99,Weather View 32 v70,2013-02-14 20:34:00,
2013-02-14 14:39:00,30.0,25.2,29.94,NW,315,8.0,12.0,82,0.02,,,-99.99,Weather View 32 v70,2013-02-14 20:39:00,
2013-02-14 14:49:00,30.0,24.9,29.95,WNW,292,6.0,16.0,81,0.02,,,-99.99,Weather View 32 v70,2013-02-14 20:49:00,
2013-02-14 14:54:00,31.0,25.6,29.95,West,270,10.0,16.0,80,0.02,,,-99.99,Weather View 32 v70,2013-02-14 20:54:00,
2013-02-14 14:59:00,31.0,24.9,29.95,NW,315,7.0,16.0,78,0.01,,,-99.99,Weather View 32 v70,2013-02-14 20:59:00,
2013-02-14 15:04:00,30.0,22.7,29.95,North,0,3.0,16.0,74,0.01,,,-99.99,Weather View 32 v70,2013-02-14 21:04:00,
2013-02-14 15:09:00,30.0,23.0,29.96,WNW,292,7.0,16.0,75,0.01,,,-99.99,Weather View 32 v70,2013-02-14 21:09:00,
2013-02-14 15:19:00,30.0,21.7,29.97,North,0,5.0,16.0,71,0.01,,,-99.99,Weather View 32 v70,2013-02-14 21:19:00,
2013-02-14 15:24:00,30.0,20.7,29.97,NW,315,6.0,16.0,68,0.01,,,-99.99,Weather View 32 v70,2013-02-14 21:24:00,
2013-02-14 15:29:00,30.0,21.1,29.97,NNW,338,3.0,16.0,69,0.01,,,-99.99,Weather View 32 v70,2013-02-14 21:29:00,
2013-02-14 15:34:00,30.0,20.4,29.97,SW,225,3.0,16.0,67,0.00,,,-99.99,Weather View 32 v70,2013-02-14 21:34:00,
2013-02-14 15:39:00,30.0,20.4,29.98,North,0,6.0,16.0,67,0.00,,,-99.99,Weather View 32 v70,2013-02-14 21:39:00,
2013-02-14 15:44:00,29.0,18.0,29.98,NW,315,8.0,16.0,63,0.00,,,-99.99,Weather View 32 v70,2013-02-14 21:44:00,
2013-02-14 15:49:00,29.0,18.0,29.99,North,0,6.0,16.0,63,0.00,,,-99.99,Weather View 32 v70,2013-02-14 21:49:00,
2013-02-14 15:59:00,28.0,16.7,29.99,NNW,338,4.0,16.0,62,0.00,,,-99.99,Weather View 32 v70,2013-02-14 21:59:00,
2013-02-14 16:04:00,28.0,16.3,29.99,NW,315,7.0,16.0,61,0.00,,,-99.99,Weather View 32 v70,2013-02-14 22:04:00,
2013-02-14 16:09:00,28.0,16.7,30.00,North,0,5.0,16.0,62,0.00,,,-99.99,Weather View 32 v70,2013-02-14 22:09:00,
2013-02-14 16:14:00,28.0,16.3,30.00,NNE,22,7.0,16.0,61,0.00,,,-99.99,Weather View 32 v70,2013-02-14 22:14:00,
2013-02-14 16:23:00,27.0,14.6,30.01,North,0,5.0,16.0,59,0.00,,,-99.99,Weather View 32 v70,2013-02-14 22:23:00,
2013-02-14 16:29:00,27.0,14.2,30.01,North,0,5.0,16.0,58,0.00,,,-99.99,Weather View 32 v70,2013-02-14 22:29:00,
2013-02-14 16:34:00,27.0,13.4,30.02,NW,315,11.0,16.0,56,0.00,,,-99.99,Weather View 32 v70,2013-02-14 22:34:00,
2013-02-14 16:39:00,27.0,13.8,30.02,NNW,338,2.0,16.0,57,0.00,,,-99.99,Weather View 32 v70,2013-02-14 22:39:00,
2013-02-14 16:44:00,27.0,13.4,30.03,NW,315,2.0,16.0,56,0.00,,,-99.99,Weather View 32 v70,2013-02-14 22:44:00,
2013-02-14 16:54:00,26.0,11.6,30.03,NNE,22,6.0,16.0,54,0.00,,,-99.99,Weather View 32 v70,2013-02-14 22:54:00,
2013-02-14 16:59:00,26.0,11.2,30.03,NNW,338,4.0,16.0,53,0.00,,,-99.99,Weather View 32 v70,2013-02-14 22:59:00,
2013-02-14 17:04:00,26.0,10.8,30.03,North,0,5.0,16.0,52,0.00,,,-99.99,Weather View 32 v70,2013-02-14 23:04:00,
2013-02-14 17:09:00,26.0,11.2,30.04,North,0,3.0,16.0,53,0.00,,,-99.99,Weather View 32 v70,2013-02-14 23:09:00,
2013-02-14 17:19:00,25.0,10.3,30.04,WNW,292,4.0,16.0,53,0.00,,,-99.99,Weather View 32 v70,2013-02-14 23:19:00,
2013-02-14 17:24:00,25.0,10.3,30.05,WNW,292,4.0,16.0,53,0.00,,,-99.99,Weather View 32 v70,2013-02-14 23:24:00,
2013-02-14 17:34:00,25.0,9.8,30.05,NE,45,5.0,16.0,52,0.00,,,-99.99,Weather View 32 v70,2013-02-14 23:34:00,
2013-02-14 17:39:00,24.0,8.9,30.06,NW,315,7.0,12.0,52,0.00,,,-99.99,Weather View 32 v70,2013-02-14 23:39:00,
2013-02-14 17:59:00,24.0,9.3,30.07,WNW,292,4.0,13.0,53,0.00,,,-99.99,Weather View 32 v70,2013-02-14 23:59:00,
2013-02-14 18:04:00,24.0,8.9,30.07,WNW,292,2.0,13.0,52,0.00,,,-99.99,Weather View 32 v70,2013-02-15 00:04:00,
2013-02-14 18:14:00,24.0,8.9,30.08,NW,315,3.0,13.0,52,0.00,,,-99.99,Weather View 32 v70,2013-02-15 00:14:00,
2013-02-14 18:24:00,23.0,8.4,30.08,WNW,292,4.0,13.0,53,0.00,,,-99.99,Weather View 32 v70,2013-02-15 00:24:00,
2013-02-14 18:29:00,23.0,8.0,30.09,WNW,292,4.0,13.0,52,0.00,,,-99.99,Weather View 32 v70,2013-02-15 00:29:00,
2013-02-14 18:39:00,23.0,8.0,30.09,NNW,338,4.0,13.0,52,0.00,,,-99.99,Weather View 32 v70,2013-02-15 00:39:00,
2013-02-14 18:49:00,23.0,7.6,30.09,NW,315,2.0,14.0,51,0.00,,,-99.99,Weather View 32 v70,2013-02-15 00:49:00,
2013-02-14 18:54:00,23.0,8.0,30.10,NW,315,2.0,14.0,52,0.00,,,-99.99,Weather View 32 v70,2013-02-15 00:54:00,
2013-02-14 18:59:00,23.0,8.0,30.10,NW,315,5.0,14.0,52,0.00,,,-99.99,Weather View 32 v70,2013-02-15 00:59:00,
2013-02-14 19:04:00,23.0,8.4,30.10,NNW,338,2.0,14.0,53,0.00,,,-99.99,Weather View 32 v70,2013-02-15 01:04:00,
2013-02-14 19:09:00,23.0,8.4,30.10,NW,315,3.0,14.0,53,0.00,,,-99.99,Weather View 32 v70,2013-02-15 01:09:00,
2013-02-14 19:19:00,22.0,7.5,30.11,NW,315,1.0,14.0,53,0.00,,,-99.99,Weather View 32 v70,2013-02-15 01:19:00,
2013-02-14 19:24:00,22.0,7.5,30.11,NNW,338,2.0,14.0,53,0.00,,,-99.99,Weather View 32 v70,2013-02-15 01:24:00,
2013-02-14 19:34:00,22.0,7.9,30.12,North,0,3.0,14.0,54,0.00,,,-99.99,Weather View 32 v70,2013-02-15 01:34:00,
2013-02-14 19:44:00,22.0,8.3,30.12,North,0,1.0,12.0,55,0.00,,,-99.99,Weather View 32 v70,2013-02-15 01:44:00,
2013-02-14 19:49:00,22.0,8.3,30.12,North,0,2.0,12.0,55,0.00,,,-99.99,Weather View 32 v70,2013-02-15 01:49:00,
2013-02-14 19:54:00,22.0,8.3,30.12,NW,315,1.0,11.0,55,0.00,,,-99.99,Weather View 32 v70,2013-02-15 01:54:00,
2013-02-14 20:04:00,21.0,7.8,30.13,NNW,338,2.0,11.0,56,0.00,,,-99.99,Weather View 32 v70,2013-02-15 02:04:00,
2013-02-14 20:09:00,21.0,7.8,30.13,NW,315,7.0,11.0,56,0.00,,,-99.99,Weather View 32 v70,2013-02-15 02:09:00,
2013-02-14 20:14:00,21.0,7.4,30.14,NW,315,2.0,11.0,55,0.00,,,-99.99,Weather View 32 v70,2013-02-15 02:14:00,
2013-02-14 20:19:00,21.0,7.8,30.14,NW,315,4.0,11.0,56,0.00,,,-99.99,Weather View 32 v70,2013-02-15 02:19:00,
2013-02-14 20:24:00,21.0,7.8,30.14,NW,315,2.0,11.0,56,0.00,,,-99.99,Weather View 32 v70,2013-02-15 02:24:00,
2013-02-14 20:34:00,21.0,8.5,30.15,WNW,292,2.0,11.0,58,0.00,,,-99.99,Weather View 32 v70,2013-02-15 02:34:00,
2013-02-14 20:39:00,21.0,8.5,30.15,NW,315,2.0,11.0,58,0.00,,,-99.99,Weather View 32 v70,2013-02-15 02:39:00,
2013-02-14 20:44:00,20.0,7.6,30.15,WNW,292,1.0,11.0,58,0.00,,,-99.99,Weather View 32 v70,2013-02-15 02:44:00,
2013-02-14 20:49:00,20.0,8.0,30.16,NNW,338,3.0,11.0,59,0.00,,,-99.99,Weather View 32 v70,2013-02-15 02:49:00,
2013-02-14 20:54:00,20.0,8.0,30.16,NW,315,4.0,11.0,59,0.00,,,-99.99,Weather View 32 v70,2013-02-15 02:54:00,
2013-02-14 21:04:00,20.0,8.3,30.16,WNW,292,3.0,11.0,60,0.00,,,-99.99,Weather View 32 v70,2013-02-15 03:04:00,
2013-02-14 21:09:00,20.0,8.7,30.17,NW,315,4.0,10.0,61,0.00,,,-99.99,Weather View 32 v70,2013-02-15 03:09:00,
2013-02-14 21:14:00,20.0,8.7,30.17,NW,315,2.0,10.0,61,0.00,,,-99.99,Weather View 32 v70,2013-02-15 03:14:00,
2013-02-14 21:19:00,20.0,8.7,30.17,North,0,1.0,10.0,61,0.00,,,-99.99,Weather View 32 v70,2013-02-15 03:19:00,
2013-02-14 21:24:00,19.0,8.1,30.18,WNW,292,4.0,10.0,62,0.00,,,-99.99,Weather View 32 v70,2013-02-15 03:24:00,
2013-02-14 21:34:00,19.0,8.1,30.18,NW,315,4.0,10.0,62,0.00,,,-99.99,Weather View 32 v70,2013-02-15 03:34:00,
2013-02-14 21:39:00,19.0,8.1,30.18,NW,315,2.0,10.0,62,0.00,,,-99.99,Weather View 32 v70,2013-02-15 03:39:00,
2013-02-14 21:44:00,19.0,8.5,30.18,NW,315,4.0,10.0,63,0.00,,,-99.99,Weather View 32 v70,2013-02-15 03:44:00,
2013-02-14 21:49:00,19.0,8.5,30.18,NW,315,1.0,10.0,63,0.00,,,-99.99,Weather View 32 v70,2013-02-15 03:49:00,
2013-02-14 21:59:00,19.0,8.5,30.19,WNW,292,4.0,10.0,63,0.00,,,-99.99,Weather View 32 v70,2013-02-15 03:59:00,
2013-02-14 22:04:00,19.0,8.5,30.19,NNW,338,3.0,10.0,63,0.00,,,-99.99,Weather View 32 v70,2013-02-15 04:04:00,
2013-02-14 22:14:00,18.0,7.5,30.19,NNW,338,1.0,9.0,63,0.00,,,-99.99,Weather View 32 v70,2013-02-15 04:14:00,
2013-02-14 22:19:00,18.0,7.5,30.19,North,0,1.0,9.0,63,0.00,,,-99.99,Weather View 32 v70,2013-02-15 04:19:00,
2013-02-14 22:24:00,18.0,7.2,30.19,WNW,292,8.0,9.0,62,0.00,,,-99.99,Weather View 32 v70,2013-02-15 04:24:00,
2013-02-14 22:29:00,18.0,7.2,30.19,WNW,292,1.0,9.0,62,0.00,,,-99.99,Weather View 32 v70,2013-02-15 04:29:00,
2013-02-14 22:34:00,18.0,7.2,30.19,NNW,338,2.0,9.0,62,0.00,,,-99.99,Weather View 32 v70,2013-02-15 04:34:00,
2013-02-14 22:44:00,18.0,6.8,30.20,North,0,1.0,9.0,61,0.00,,,-99.99,Weather View 32 v70,2013-02-15 04:44:00,
2013-02-14 22:49:00,18.0,7.2,30.20,NW,315,3.0,9.0,62,0.00,,,-99.99,Weather View 32 v70,2013-02-15 04:49:00,
2013-02-14 22:54:00,18.0,7.5,30.19,NW,315,1.0,9.0,63,0.00,,,-99.99,Weather View 32 v70,2013-02-15 04:54:00,
2013-02-14 22:59:00,17.0,6.6,30.20,NNW,338,1.0,9.0,63,0.00,,,-99.99,Weather View 32 v70,2013-02-15 04:59:00,
2013-02-14 23:04:00,17.0,6.6,30.20,WNW,292,2.0,9.0,63,0.00,,,-99.99,Weather View 32 v70,2013-02-15 05:04:00,
2013-02-14 23:09:00,17.0,6.9,30.20,NW,315,1.0,9.0,64,0.00,,,-99.99,Weather View 32 v70,2013-02-15 05:09:00,
2013-02-14 23:14:00,17.0,6.9,30.20,NW,315,0.0,9.0,64,0.00,,,-99.99,Weather View 32 v70,2013-02-15 05:14:00,
2013-02-14 23:19:00,17.0,6.9,30.20,NW,315,1.0,9.0,64,0.00,,,-99.99,Weather View 32 v70,2013-02-15 05:19:00,
2013-02-14 23:24:00,17.0,7.3,30.20,WNW,292,3.0,8.0,65,0.00,,,-99.99,Weather View 32 v70,2013-02-15 05:24:00,
2013-02-14 23:29:00,17.0,7.3,30.20,NW,315,1.0,8.0,65,0.00,,,-99.99,Weather View 32 v70,2013-02-15 05:29:00,
2013-02-14 23:34:00,17.0,7.3,30.20,NW,315,3.0,8.0,65,0.00,,,-99.99,Weather View 32 v70,2013-02-15 05:34:00,
2013-02-14 23:44:00,16.0,6.3,30.21,NW,315,2.0,4.0,65,0.00,,,-99.99,Weather View 32 v70,2013-02-15 05:44:00,
2013-02-14 23:49:00,16.0,6.7,30.21,WNW,292,0.0,4.0,66,0.00,,,-99.99,Weather View 32 v70,2013-02-15 05:49:00,
2013-02-14 23:54:00,16.0,6.7,30.21,WNW,292,0.0,4.0,66,0.00,,,-99.99,Weather View 32 v70,2013-02-15 05:54:00,
2013-02-14 23:59:00,16.0,6.7,30.21,WNW,292,1.0,5.0,66,0.00,,,-99.99,Weather View 32 v70,2013-02-15 05:59:00,